Flag for Germany Weather past 2 weeks in Eisenhüttenstadt, Brandenburg, Germany

Now
43 °F

Partly sunny.


Feels Like: 37 °F
Forecast: 34 / 43 °F
Wind: 9 mph from West

Location: Lindenberg

Current Time: Apr 1, 2015 at 8:20:26 PM

Latest Report: Apr 1, 2015 at 7:00 PM


Visibility: 31 mi

Pressure: 29.75 "Hg

Humidity: 53%

Dew point: 27 °F

Location of EisenhüttenstadtLocation

Historic Weather in Eisenhüttenstadt — Graph

°F

Eisenhüttenstadt temperature yesterday

Maximum temperature yesterday: 51 °F (at 2:00 PM)
Minimum temperature yesterday: 33 °F (at 9:00 AM)
Average temperature yesterday: 42 °F

Past Weeks' High & Low Weather Summary

 TemperatureHumidityPressure
High62 °F (Mar 25, 5:00 PM)100% (Mar 31, 9:00 AM)30.41 "Hg (Mar 31, 9:00 AM)
Low28 °F (Mar 22, 7:00 AM)20% (Mar 18, 3:00 PM)29.06 "Hg (Mar 31, 12:00 PM)
Average43 °F68%29.90 "Hg
* Reported Mar 17 6:00 PM — Apr 1 7:00 PM, Eisenhüttenstadt, Weather by CustomWeather, © 2015

Note: Actual official high and low records may vary slightly from our data, if they occured in-between our weather recording intervals... More about our weather records

Advertising

Eisenhüttenstadt weather history for previous 24 hours

 ConditionsComfort  
Time TempWeatherWind HumidityBarometerVisibility
7:00 PM
Wed, Apr 1
43 °FPartly sunny.9 mph53%29.75 "Hg31 mi
6:00 PM44 °FPartly sunny.14 mph54%29.73 "Hg16 mi
4:00 PM44 °FPartly sunny.10 mph64%29.72 "Hg16 mi
3:00 PM40 °FOvercast.10 mph77%29.71 "Hg19 mi
2:00 PM40 °FSprinkles. Overcast.10 mph82%29.69 "Hg12 mi
1:00 PM42 °FOvercast.12 mph66%29.70 "Hg28 mi
12:00 PM40 °FSprinkles. Overcast.8 mph78%29.68 "Hg12 mi
11:00 AM39 °FPartly sunny.8 mph82%29.67 "Hg16 mi
10:00 AM37 °FLight rain. Overcast.8 mph90%29.65 "Hg9 mi
9:00 AM37 °FLight rain. Overcast.8 mph89%29.62 "Hg12 mi
8:00 AM37 °FLight rain. Overcast.8 mph87%29.59 "Hg6 mi
7:00 AM38 °FOvercast.8 mph82%29.56 "Hg22 mi
6:00 AM38 °FOvercast.9 mph83%29.50 "Hg22 mi
4:00 AM38 °FOvercast.10 mph79%29.47 "Hg28 mi
3:00 AM39 °FOvercast.10 mph80%29.47 "Hg28 mi
2:00 AM40 °FOvercast.12 mph75%29.44 "Hg28 mi
1:00 AM42 °FPassing clouds.13 mph65%29.41 "Hg28 mi
12:00 AM43 °FPassing clouds.14 mph57%29.38 "Hg28 mi
10:00 PM
Tue, Mar 31
44 °FOvercast.16 mph60%29.35 "Hg34 mi
9:00 PM45 °FOvercast.17 mph60%29.29 "Hg31 mi
8:00 PM46 °FOvercast.18 mph63%29.26 "Hg31 mi
Weather by CustomWeather, © 2015

See weather overviewHow to use our weather pages